Location: Eekst
(53.0191°N, 6.7366°E)
Time: 20:21:18
(UTC+00:00)

USA 245 - Pass Details

Date: 15 May 2026
Orbit: 264 x 994 km, 97.9° (Epoch: 15 October)

Event Time Altitude Azimuth Distance (km) Brightness Sun altitude
Exits shadow 20:25:40 - 157° (SSE) 2,797 6.3 -7.8°
Reaches altitude 10° 20:26:16 10° 156° (SSE) 2,572 6.1 -7.8°
Maximum altitude 20:32:06 76° 72° (ENE) 895 4.3 -8.4°
Drops below altitude 10° 20:37:30 10° 348° (NNW) 2,380 7.6 -9.0°
Sets 20:39:42 0° 347° (NNW) 3,237 8.5 -9.2°
